Regional Weather Roundup
Issued by NWS

Home | Current Version | Previous Version | Graphics & Text | Print | Product List | Glossary On
Versions: 1 2 3 4 5 6 7 8 9 10 11 12 13 14 15 16 17 18 19 20 21 22 23 24 25 26 27 28 29 30 31 32 33 34 35 36 37 38 39 40 41 42 43 44 45 46 47 48 49 50
000
ASUS45 KBOU 022007
RWRCO

WEATHER ROUNDUP FOR COLORADO
NATIONAL WEATHER SERVICE DENVER/BOULDER CO
100 PM MST MON MAR 02 2015

NOTE: "FAIR" INDICATES FEW OR NO CLOUDS BELOW 12000 FEET WITH NO
SIGNIFICANT WEATHER AND/OR OBSTRUCTIONS TO VISIBILITY.

COZ001>005-013-030-031-022100-
...NORTHWEST COLORADO...

CITY           SKY/WX    TMP DP  RH WIND       PRES   REMARKS
CRAIG          CLOUDY    42  35  76 NE9       29.70F
HAYDEN         NOT AVBL
MEEKER         LGT RAIN  49  37  63 SW17G26   29.69F
MOUNT WERNER   NOT AVBL
STEAMBOAT SPGS PTSUNNY   35  31  83 CALM      29.72F
WALDEN         PTSUNNY   37  28  70 S14G22    29.74F
$$

COZ006>008-011-022100-
...WEST CENTRAL VALLEYS...

CITY           SKY/WX    TMP DP  RH WIND       PRES   REMARKS
GRAND JUNCTION PTSUNNY   57  38  48 S18       29.67F
MONTROSE       NOT AVBL
EAGLE          CLOUDY    39  36  87 VRB7      29.76F
RIFLE          CLOUDY    39  36  89 E7        29.72F
DELTA          CLOUDY    59  37  43 S18G24    29.72F
NUCLA          CLOUDY    54  32  43 S24G32    29.77F
$$

COZ017>023-064>068-022100-
...SOUTHWEST COLORADO...

CITY           SKY/WX    TMP DP  RH WIND       PRES   REMARKS
DURANGO        NOT AVBL
CORTEZ         CLOUDY    51  32  48 S22G29    29.80F
PAGOSA SPRINGS CLOUDY    40  30  65 CALM      29.92F
TELLURIDE      CLOUDY    39  24  55 SE22G32   29.87F
WOLF CREEK PAS CLOUDY    21  21 100 SW12G25   29.97F WCI   9
$$

COZ009-010-012-014-032>034-037-058>063-022100-
...CENTRAL COLORADO...

CITY           SKY/WX    TMP DP  RH WIND       PRES   REMARKS
ASPEN          CLOUDY    44  28  53 S13       29.75F
BUENA VISTA    PTSUNNY   42  26  53 S17G25    29.82F
COPPER MTN     LGT SNOW  32  25  74 S25G35    29.86F WCI  19
BERTHOUD PASS  LGT SNOW  25  19  80 SW29G36   29.88F WCI   8
COTTONWOOD PAS PTSUNNY   41  19  42 SW13G30   29.85F
GUNNISON       MOSUNNY   36  28  75 N12       29.85
KREMMLING      CLOUDY    48  28  46 SW12      29.77F
LEADVILLE      CLOUDY    33  24  69 S12       29.81F WCI  24
SALIDA         MOSUNNY   48  28  45 S13G23    29.88F
SUNLIGHT       CLOUDY    32  30  93 CALM        N/A
WILKERSON PASS SUNNY     32  21  64 S10G23    29.90F WCI  24
$$

COZ069>075-022100-
...SAN LUIS VALLEY/SANGRE DE CRISTO MOUNTAINS...

CITY           SKY/WX    TMP DP  RH WIND       PRES   REMARKS
ALAMOSA        CLOUDY    43  29  57 S9        29.90F
LA VETA PASS   CLOUDY    32  27  80 S13G33    29.94F WCI  22
SAGUACHE       MOSUNNY   43  30  61 E8G17     29.88F
$$

COZ035-036-038>040-022100-
...NORTHERN COLORADO FRONT RANGE...

CITY           SKY/WX    TMP DP  RH WIND       PRES   REMARKS
DENVER INTL AP MOSUNNY   29  21  72 N6        29.77F HAZE    WCI  23
DMNS CITY PARK   N/A     33  20  57 NE3G9     29.77F
AURORA         MOSUNNY   32  21  64 N6        29.76F WCI  26
FRONT RANGE AP NOT AVBL
ERIE MUNI ARPT MOSUNNY   31  21  67 CALM      29.78F
BOULDER MUN AP PTSUNNY   32  21  64 N3        29.78F
CENTENNIAL     MOSUNNY   36  21  54 N7        29.75F FOG
BROOMFIELD     MOSUNNY   30  21  69 CALM      29.78F HAZE
FORT COLLINS   SUNNY     32  23  69 N3        29.79F
LONGMONT       MOSUNNY   39  22  48 N6        29.81F
$$

COZ041-046-047-076>085-087-088-022100-
...PIKES PEAK/PALMER DIVIDE AND SOUTHERN FOOTHILLS...

CITY           SKY/WX    TMP DP  RH WIND       PRES   REMARKS
COLO. SPRINGS  PTSUNNY   29  24  82 CALM      29.85F HAZE
A. F. ACADEMY  SUNNY     31  23  71 S16       29.81F WCI  20
ELLICOTT       NOT AVBL
FALCON         SUNNY     32  25  74 SW8       29.84F HAZE    WCI  25
FORT CARSON    PTSUNNY   30  24  79 S5        29.83F FOG     WCI  25
LIMON          LGT SNOW  26  24  92 S20G28    29.84F FOG     WCI  12
MONUMENT HILL  SUNNY     45  23  42 SW16      29.77F
TRINIDAD       CLOUDY    50  35  56 CALM      29.84F
$$

COZ042>045-048>051-090-091-022100-
...NORTHEAST COLORADO...

CITY           SKY/WX    TMP DP  RH WIND       PRES   REMARKS
GREELEY ARPT   SUNNY     36  21  55 W3        29.78F
AKRON          MOSUNNY   36  26  67 S25G31    29.81F
BURLINGTON     CLOUDY    28  24  85 S23       29.92F FOG     WCI  14
WRAY           CLOUDY    32  25  74 S18G26    29.92F WCI  20
STERLING       MOSUNNY   41  28  60 S17       29.82F
HOLYOKE        NOT AVBL
FORT MORGAN    MOSUNNY   42  24  50 S14       29.80F
$$

COZ086-089-092>099-022100-
...SOUTHEAST COLORADO...

CITY           SKY/WX    TMP DP  RH WIND       PRES   REMARKS
PUEBLO         CLOUDY    31  26  82 VRB5      29.87F WCI  26
LA JUNTA       PTSUNNY   38  28  67 CALM      29.90F
LAMAR          PTSUNNY   39  30  70 S14       29.91F
SPRINGFIELD      N/A     34  29  82 S24G31    29.91F WCI  21
$$



USA.gov is the U.S. government's official web portal to all federal, state and local government web resources and services.